Location: ??????
(56.0120°N, 39.1740°E)
Time: 09:15:19
(UTC+00:00)

COBE Rocket - Pass Details

Date: 14 April 2026
Orbit: 676 x 771 km, 97.1° (Epoch: 19 May)

Event Time Altitude Azimuth Distance (km) Brightness Sun altitude
Rises 17:06:47 0° 12° (NNE) 3,152 7.4 -5.8°
Reaches altitude 10° 17:09:03 10° 11° (N) 2,241 6.7 -6.1°
Maximum altitude 17:13:58 72° 288° (WNW) 787 4.3 -6.7°
Drops below altitude 10° 17:18:59 10° 205° (SSW) 2,281 6.4 -7.3°
Sets 17:21:18 0° 203° (SSW) 3,213 7.2 -7.6°
